Regional Weather Roundup
Issued by NWS Charleston, SC

Current Version | Previous Version | Graphics & Text | Print | Product List | Glossary On
Versions: 1 2 3 4 5 6 7 8 9 10 11 12 13 14 15 16 17 18 19 20 21 22 23 24 25 26 27 28 29 30 31 32 33 34 35 36 37 38 39 40 41 42 43 44 45 46 47 48 49 50
000
ASUS42 KCHS 030627
RWRCHS

REGIONAL WEATHER ROUNDUP
NATIONAL WEATHER SERVICE CHARLESTON SC
200 AM EDT FRI JUL 03 2015

NOTE: "FAIR" INDICATES FEW OR NO CLOUDS BELOW 12,000 FEET WITH NO
SIGNIFICANT WEATHER AND/OR OBSTRUCTIONS TO VISIBILITY.

NOT ALL STATIONS ARE QUALITY CONTROLLED BY THE NATIONAL
WEATHER SERVICE. USE DATA WITH CAUTION...ESPECIALLY
DEWPOINT OBSERVATIONS.

SCZ027-030-031-034>040-042>050-030700-
...SOUTHEAST SOUTH CAROLINA...

CITY           SKY/WX    TMP DP  RH WIND       PRES   REMARKS
N CHARLESTON   PTCLDY    71  68  90 W6        29.97F
6HR MIN TEMP:  71; 6HR MAX TEMP:  77; 6HR PCP:  1.61;

WATERFRONT PAR   N/A     72  71  97 W5        29.95F
MOUNT PLEASANT LGT RAIN  72  72 100 SW7       29.97S
JOHNS ISLAND   FAIR      72  72 100 SW5       29.98S
PINOPOLIS      NOT AVBL
MONCKS CORNER  FAIR      70  68  94 SW5       29.96S
SUMMERVILLE    FAIR      70  70 100 CALM      29.98S
BEAUFORT MCAS  CLEAR     72  71  97 SW8       30.00S
6HR MIN TEMP:  71; 6HR MAX TEMP:  73; 6HR PCP:  0.19;

BEAUFORT ARPT  FAIR      73  72  94 SW9       30.00S
HILTON HEAD IS CLEAR     73  73 100 S8        30.02S
WALTERBORO     CLEAR     70  68  94 SW6       29.98F
ALLENDALE      FAIR      72  70  94 VRB3      29.97F

...SOUTHERN MIDLANDS AND PEE DEE...

CITY           SKY/WX    TMP DP  RH WIND       PRES   REMARKS
GEORGETOWN     NOT AVBL
KINGSTREE      NOT AVBL
ORANGEBURG     CLOUDY    70  68  93 SW6       29.97F
6HR MIN TEMP:  70; 6HR MAX TEMP:  71;

BARNWELL       FAIR      72  70  94 SW3       29.98F
AIKEN          NOT AVBL
MANNING        FAIR      70  70 100 SW5       29.96S
COLUMBIA       MOCLDY    71  67  87 SW6       29.95F
6HR MIN TEMP:  71; 6HR MAX TEMP:  72; 6HR PCP: TRACE;

SUMTER         PTCLDY    70  68  91 SW8       29.94F
6HR MIN TEMP:  70; 6HR MAX TEMP:  71; 6HR PCP: TRACE;

FLORENCE       MOCLDY    71  69  93 W9        29.94F
6HR MIN TEMP:  71; 6HR MAX TEMP:  73;

MYRTLE BEACH   CLOUDY    72  66  83 W9        29.94S
N MYRTLE BEACH CLOUDY    71  69  93 W6        29.91F
6HR MIN TEMP:  71; 6HR MAX TEMP:  82; 6HR PCP:  0.77;


$$

GAZ063-065-086>088-099>101-113>116-118-119-134>141-150-030700-
...SOUTHEAST GEORGIA...

CITY           SKY/WX    TMP DP  RH WIND       PRES   REMARKS
SAVANNAH ARPT  CLEAR     72  69  90 SW8       30.02F
6HR MIN TEMP:  71; 6HR MAX TEMP:  73; 6HR PCP:  0.08;

HUNTER AAF     CLEAR     73  71  95 SW10      30.00F
6HR MIN TEMP:  72; 6HR MAX TEMP:  75; 6HR PCP: TRACE;

FORT STEWART   PTCLDY    72  70  94 SW5       30.01S
6HR MIN TEMP:  71; 6HR MAX TEMP:  73; 6HR PCP:  0.05;

STATESBORO     NOT AVBL
SYLVANIA       MOCLDY    73  72  99 SW5       30.01S
CLAXTON        MOCLDY    72  70  94 W3        30.02F

...CSRA...CENTRAL AND FAR SOUTHEAST GEORGIA...

CITY           SKY/WX    TMP DP  RH WIND       PRES   REMARKS
THOMSON        CLOUDY    74  74 100 SW6       30.01F
AUGUSTA-BUSH   MOCLDY    71  69  93 SW6       29.96F
6HR MIN TEMP:  70; 6HR MAX TEMP:  71; 6HR PCP:  0.04;

AUGUSTA-DANIEL MOCLDY    71  69  93 SW6       29.98F
SWAINSBORO     FAIR     N/A N/A N/A S3        30.02S
VIDALIA        MOCLDY    72  70  94 SW6       30.02F
EASTMAN        FAIR      73  73 100 SW5       30.05S
HAZLEHURST     FAIR      73  73 100 S5        30.02S
ALMA           PTCLDY    71  69  93 S5        30.04F
6HR MIN TEMP:  71; 6HR MAX TEMP:  73;

WAYCROSS       CLEAR     73  73  97 SW5       30.05S
JESUP          FAIR      72  72 100 SW3       30.04F
BAXLEY         FAIR      72  70  94 CALM      30.03F
BRUNSWICK      PTCLDY    70  70 100 CALM      30.05F
SAINT SIMONS   PTCLDY    73  70  90 S3        30.05F
6HR MIN TEMP:  72; 6HR MAX TEMP:  74; 6HR PCP:  0.09;


$$

SCZ027-028-034-036>038-045-046-048>050-GAZ119-141-030700-
...LAKE AND SUPPLEMENTAL COASTAL OBSERVATIONS...

STATION/POSITION TIME  TEMP    WIND        PRES    WAVE   SWELL
                       AIR SEA DIR/SP/G            HT/PER HT/PER/DIR
                 (UTC) (F)     (DEG/KT/KT) (MB)    (FT/S) (FT/S/D)
UPR LAKE MARION  NOT AVBL
WINYAH BAY       0545   71     270/  7     1013.0F
LAKE MURRAY      0500   73     230/  9/ 12 1014.2F
ACE BASIN NERRS  NOT AVBL
FORT PULASKI     0600   74 84  210/  8/ 12 1017.0F
SAPELO ISLAND    0600   74     190/  7     1017.0F

$$

ANZ835-935-AMZ111-154-330-350-352-354-370-450-454-472-030700-
...C-MAN AND BUOY OBSERVATIONS...

STATION/POSITION TIME  TEMP    WIND        PRES    WAVE   SWELL
                       AIR SEA DIR/SP/G            HT/PER HT/PER/DIR
                 (UTC) (F)     (DEG/KT/KT) (MB)    (FT/S) (FT/S/D)
BUOY 41004       0550   77 81  230/ 16/ 17 1014.6F   5/ 6   2/ 8
BUOY 41008       0550   77 79  230/ 16/ 17 1017.5F   2/ 5   2/160/ 8
FOLLY BEACH CMAN 0600   72     230/  5/  8 1015.4R
CAPERS NEARSHORE 0508   75     270/ 12/ 16 1015.3F
FRIPP NEARSHORE  0500   77     270/ 12/ 14 1015.9F


STATION/POSITION TIME  TEMP    WIND        PRES    WAVE   SWELL
                       AIR SEA DIR/SP/G            HT/PER HT/PER/DIR
                 (UTC) (F)     (DEG/KT/KT) (MB)    (FT/S) (FT/S/D)
5E ST. MARYS GA  0521      77                N/A     2/ 9
FRYING PAN BUOY  0550   77 80  240/ 12/ 16 1014.0R   6/ 7   5/190/ 7
BUOY 41025       0550   81 83  230/ 27/ 35 1011.8F   8/ 7   2/230/10
CAPE LOOKOUT NC  0600   78     290/ 17/ 18 1012.8F
BUOY 41002       0550   81 80  230/ 21/ 25 1017.3F   6/ 7   2/150/ 8
BUOY 41010       0520   82 84  190/  4/  4 1019.9F
ST AUGUSTINE FL  0600   73 73  220/  7/  8 1019.3F


$$


USA.gov is the U.S. government's official web portal to all federal, state and local government web resources and services.